GW4836 Weather Reports


time (UTC)temp
C
wind
direction
speed
KPH
gust
KPH
rain 1hr
cm
rain 24hr
cm
rain mn
cm
humidity
%
barometer
mb
20260504081551 7 27 19.3 32.2 0.00 0.00 0.00 58 1015.1
20260504050018 12 24 25.7 40.2 0.00 0.00 0.00 37 1011.2
20260504044518 12 35 30.6 43.5 0.00 0.00 0.00 38 1011.1
20260504043019 13 24 20.9 33.8 0.00 0.00 0.00 39 1010.4
20260504041516 13 24 17.7 27.4 0.00 0.00 0.00 38 1010.0
20260504040018 13 53 19.3 27.4 0.00 0.00 0.00 38 1009.8
20260504034516 13 48 16.1 24.1 0.00 0.00 0.00 37 1009.5
20260504033015 14 11 16.1 27.4 0.00 0.00 0.00 35 1009.1
20260504031514 15 36 17.7 30.6 0.00 0.00 0.00 35 1008.8
20260504030013 15 34 17.7 27.4 0.00 0.00 0.00 35 1008.6
20260504024513 16 32 19.3 29.0 0.00 0.00 0.00 33 1008.4
20260504023012 17 37 16.1 27.4 0.00 0.00 0.00 30 1008.2
20260504021510 18 41 17.7 30.6 0.00 0.00 0.00 27 1008.4
20260504020011 19 327 14.5 20.9 0.00 0.00 0.00 21 1008.3
20260504014508 20 17 16.1 27.4 0.00 0.00 0.00 20 1008.5
20260504013007 21 18 16.1 27.4 0.00 0.00 0.00 19 1008.5
20260504011506 21 327 19.3 25.7 0.00 0.00 0.00 19 1008.5
20260504010004 22 319 17.7 27.4 0.00 0.00 0.00 19 1008.4
20260504004505 22 317 20.9 30.6 0.00 0.00 0.00 18 1008.6
20260504003002 22 331 16.1 33.8 0.00 0.00 0.00 18 1008.8
20260504001501 22 13 27.4 37.0 0.00 0.00 0.00 18 1008.8
20260504000139 22 324 20.9 37.0 0.00 0.00 0.00 18 1009.0
20260504000000 22 313 20.9 37.0 0.00 0.00 0.00 18 1008.9
20260503234602 22 298 22.5 35.4 0.00 0.00 0.00 18 1008.9
20260503233059 22 311 20.9 35.4 0.00 0.00 0.00 19 1009.0
20260503231559 22 335 22.5 37.0 0.00 0.00 0.00 18 1009.0
20260503230057 22 341 16.1 32.2 0.00 0.00 0.00 19 1009.1
20260503224556 22 306 20.9 33.8 0.00 0.00 0.00 19 1009.4
20260503223055 22 277 22.5 32.2 0.00 0.00 0.00 18 1009.5
20260503221557 22 294 20.9 33.8 0.00 0.00 0.00 19 1009.5
20260503220052 22 298 27.4 45.1 0.00 0.00 0.00 18 1009.7
20260503214548 22 294 14.5 38.6 0.00 0.00 0.00 19 1009.8
20260503213048 22 287 17.7 38.6 0.00 0.00 0.00 21 1009.8
20260503211549 22 311 27.4 33.8 0.00 0.00 0.00 20 1010.1
20260503210043 22 313 8.0 32.2 0.00 0.00 0.00 21 1010.4
20260503204543 22 330 17.7 37.0 0.00 0.00 0.00 20 1010.5
20260503203057 21 318 12.9 29.0 0.00 0.00 0.00 21 1010.5
20260503201539 21 327 17.7 37.0 0.00 0.00 0.00 21 1010.7
20260503200037 21 332 20.9 40.2 0.00 0.00 0.00 20 1010.9
20260503194538 21 13 19.3 32.2 0.00 0.00 0.00 20 1011.3
20260503193033 21 309 19.3 32.2 0.00 0.00 0.00 21 1011.4
20260503191533 21 288 20.9 33.8 0.00 0.00 0.00 20 1011.6
20260503190037 21 302 22.5 30.6 0.00 0.00 0.00 21 1011.8
20260503184529 20 288 20.9 53.1 0.00 0.00 0.00 21 1011.9
20260503183030 20 295 16.1 32.2 0.00 0.00 0.00 21 1012.0
20260503181528 20 288 14.5 32.2 0.00 0.00 0.00 22 1012.2
20260503180029 20 286 14.5 32.2 0.00 0.00 0.00 22 1012.4
20260503174523 20 328 20.9 37.0 0.00 0.00 0.00 21 1012.5
20260503173038 20 333 14.5 24.1 0.00 0.00 0.00 22 1012.6
20260503171525 20 288 20.9 29.0 0.00 0.00 0.00 22 1012.6